Regional Weather Roundup
Issued by NWS

Home | Current Version | Previous Version | Graphics & Text | Print | Product List | Glossary Off
Versions: 1 2 3 4 5 6 7 8 9 10 11 12 13 14 15 16 17 18 19 20 21 22 23 24 25 26 27 28 29 30 31 32 33 34 35 36 37 38 39 40 41 42 43 44 45 46 47 48 49 50

000
ASUS45 KPSR 280810
RWRAZ

ARIZONA HOURLY REGIONAL WEATHER ROUNDUP
NATIONAL WEATHER SERVICE PHOENIX AZ
100 AM MST SUN AUG 28 2016

NOTE: FAIR INDICATES FEW OR NO CLOUDS BELOW 12,000 FEET WITH NO
SIGNIFICANT WEATHER AND/OR OBSTRUCTIONS TO VISIBILITY.

AZZ001>003-036-280900-
NORTHWEST ARIZONA

CITY           SKY/WX    TMP DP  RH WIND       PRES   REMARKS
BULLHEAD CITY  CLEAR     79  57  47 CALM      29.91S
KINGMAN        PTCLDY    64  55  72 CALM      30.09R
$$

AZZ004>008-015-016-018-280900-
NORTH CENTRAL ARIZONA

CITY           SKY/WX    TMP DP  RH WIND       PRES   REMARKS
GRAND CANYON   PTCLDY    51  49  92 E3        30.28S
PRESCOTT       CLOUDY    59  50  72 S5        30.18F
FLAGSTAFF      MOCLDY    47  46  97 CALM      30.30S
PAYSON         CLEAR     59  46  63 N3        30.20S
PAGE           MOCLDY    64  53  67 CALM      30.15F
$$

AZZ009>014-017-280900-
NORTHEAST ARIZONA

CITY           SKY/WX    TMP DP  RH WIND       PRES   REMARKS
WINSLOW        CLEAR     54  49  83 CALM      30.18S
SAINT JOHNS    CLEAR     55  51  86 CALM      30.21S
SHOW LOW       CLEAR     48  45  87 S5        30.26F
$$

AZZ023-280900-
GREATER PHOENIX AREA

CITY           SKY/WX    TMP DP  RH WIND       PRES   REMARKS
PHOENIX        CLEAR     85  48  27 SW3       29.90
BUCKEYE        CLEAR     81  45  28 E5        29.92S
LUKE AFB       CLEAR     82  53  36 SW3       29.90S
DEER VALLEY    CLEAR     79  51  37 N5        29.91S
SCOTTSDALE     CLEAR     79  47  32 NW6       29.93R
MESA-GATEWAY   CLEAR     77  46  33 CALM      29.93R
$$

AZZ027-028-280900-
SOUTHWEST MARICOPA COUNTY AND PINAL COUNTY

CITY           SKY/WX    TMP DP  RH WIND       PRES   REMARKS
CASA GRANDE    CLEAR     82  39  21 NW7       29.94S
GILA BEND      FAIR      80  36  20 NW7       29.89R
$$

AZZ503-504-507>509-280900-
SOUTHEAST ARIZONA

CITY           SKY/WX    TMP DP  RH WIND       PRES   REMARKS
TUCSON         CLEAR     75  41  29 SE8       30.04R
DAVIS-MONTHAN  CLEAR     71  43  36 SE12      30.02S
SIERRA VISTA   CLOUDY    66  38  36 W10       30.16R
DOUGLAS        CLEAR     61  45  55 NW3       30.10F
SAFFORD        MOCLDY    72  41  32 NW8       30.02S
$$

AZZ020-021-025-026-031-280900-
SOUTHWEST ARIZONA

CITY           SKY/WX    TMP DP  RH WIND       PRES   REMARKS
YUMA           CLEAR     82  45  27 S3        29.86S
$$

CAZ031-033-041-043-047-048-061-280900-
SOUTHERN CALIFORNIA

CITY           SKY/WX    TMP DP  RH WIND       PRES   REMARKS
DOWNTOWN L.A.  CLEAR     65  60  84 CALM      30.00R
L.A. AIRPORT   CLEAR     65  60  84 SW5       30.00R
SAN DIEGO      MOCLDY    70  62  76 W7        30.00S
BURBANK        CLEAR     65  59  81 SE6       30.00R
ONTARIO        CLEAR     65  57  75 W6        30.00S
RIVERSIDE      CLEAR     67  58  72 W3        30.00S
PALM SPRINGS   CLEAR     82  56  40 CALM      29.89S
EL CENTRO NAS  CLEAR     82  53  36 SE5       29.85R
IMPERIAL       CLEAR     86  57  37 S6        29.83R
BLYTHE         CLEAR     84  49  29 S6        29.87R
NEEDLES        CLEAR     78  68  71 NE13      29.91S
$$

NVZ020-UTZ003-280900-
SOUTHERN NEVADA-UTAH

CITY           SKY/WX    TMP DP  RH WIND       PRES   REMARKS
LAS VEGAS      PTCLDY    80  47  31 N5        29.98S
SALT LAKE CITY PTCLDY    69  33  26 S9        30.06R
$$

NMZ009-TXZ055-280900-
NEW MEXICO-WEST TEXAS

CITY           SKY/WX    TMP DP  RH WIND       PRES   REMARKS
ALBUQUERQUE    PTCLDY    62  53  72 N3        30.21F
EL PASO        PTCLDY    68  62  81 S5        30.10F
$$


........................KEY........................
SKY/WX - SKY CONDITION/WEATHER
TMP    - TEMPERATURE IN FAHRENHEIT
DP     - DEW POINT IN FAHRENHEIT
RH     - RELATIVE HUMIDITY IN PERCENT
WIND   - DIRECTION AND SPEED IN MILES PER HOUR (MPH)
VRB    - VARIABLE WIND DIRECTION
PRES   - MEAN SEA LEVEL PRESSURE IN INCHES OF MERCURY
         F - FALLING PRESSURE   R - RISING PRESSURE
         S - STEADY PRESSURE
VSB    - VISIBILITY IN MILES
HX     - HEAT INDEX IN FAHRENHEIT
WCI    - WIND CHILL INDEX IN FAHRENHEIT
TC     - TEMPERATURE IN CELSIUS WHICH IS ALSO KNOWN AS
         TEMPERATURE IN CENTIGRADE
AFB    - AIR FORCE BASE
         LUKE AFB IS LUKE AIR FORCE BASE
         DAVIS-MONTHAN IS DAVIS-MONTHAN AIR FORCE BASE
NAS    - NAVAL AIR STATION
         EL CENTRO NAS IS EL CENTRO NAVAL AIR STATION
N/A    - NOT AVAILABLE




USA.gov is the U.S. government's official web portal to all federal, state and local government web resources and services.